SCP
0 0 0 0 0 0 0 0 0 0 0 0 0 0 0 0 0 0 0 0 0 0 0 0 0 0 0 0 0 0 0 0 0 0 0 0 0 0 0 0 0 0 0
0 0 0 0 0 0 0 0 0 0 0 0 0 0 0 0 0 0 0 0 0 0 0 0 0 0 0 0 0 0 0 0 0 0 0 0 0 0 0 0 0 0 0
0 0 0 0 0 0 0 0 0 0 0 0 0 0 0 0 0 0 0 0 0 0 0 0 0 0 0 0 0 0 0 0 0 0 0 0 0 0 0 0 0 0 0
0 0 0 0 0 0 0 0 0 0 0 0 0 0 0 0 0 0 0 0 0 0 0 0 0 0 0 0 0 0 0 0 0 0 0 0 0 0 0 0 0 0 0
0 0 0 0 0 0 0 0 0 0 0 0 0 0 0 0 0 0 0 0 0 0 0 0 0 0 0 0 0 0 0 0 0 0 0 0 0 0 0 0 0 0 0
0 0 0 0 0 0 0 0 0 0 0 0 0 0 0 0 0 0 0 0 0 0 0 0 0 0 0 0 0 0 0 0 0 0 0 0 0 0 0 0 0 0 0
0 0 0 0 0 0 0 0 0 0 0 0 0 0 0 0 0 0 0 0 0 0 0 0 0 0 0 0 0 0 0 0 0 0 0 0 0 0 0 0 0 0 0
0 0 0 0 0 0 0 0 0 0 0 0 0 0 0 0 0 0 0 0 0 0 0 0 0 0 0 0 0 0 0 0 0 0 0 0 0 0 0 0 0 0 0
0 0 0 0 0 0 0 0 0 0 0 0 0 0 -0 -0 0 0 0 0 0 0 0 0 0 0 0 0 0 0 0 0 0 0 0 0 0 0 0 0 0 0 0
0 0 0 0 0 0 0 0 0 0 0 0 0 0 0 0 0 0 0 0 0 0 0 0 0 0 0 0 0 0 0 0 0 0 0 0 0 0 0 0 0 0 0
0 0 0 0 0 0 0 0 0 0 0 0 0 0 0 0 0 0 0 0 0 0 0 0 0 0 0 0 0 0 0 0 0 0 0 0 0 0 0 0 0 0 0
0 0 0 0 0 0 0 0 0 0 0 0 0 0 0 0 0 0 0 0 0 -0 0 0 0 0 0 0 0 0 0 0 0 0 0 0 0 0 0 0 0 0 0
0 0 0 0 0 0 0 0 0 0 0 0 0 0 0 0 0 0 0 0 0 0 -0 0 0 0 0 0 0 0 0 0 0 0 0 0 0 0 0 0 0 0 0
0 0 0 0 0 0 0 0 0 0 0 0 0 0 0 0 0 0 0 0 0 -0 -0 0 -0 0 0 0 0 0 0 0 0 0 0 0 0 0 0 0 0 0 0
0 0 0 0 0 0 0 0 0 0 0 0 0 0 0 0 0 0 0 0 0 0 0 -0 0 0 0 0 0 0 0 0 0 0 0 0 0 0 0 0 0 0 0
0 0 0 0 0 0 0 0 0 0 0 0 0 0 0 0 0 0 0 0 0 0 0 0 0 0 0 0 0 0 0 0 0 0 0 0 0 0 0 0 0 0 0
0 0 0 0 0 0 0 0 0 0 0 0 0 0 0 0 0 0 0 0 0 0 0 0 0 0 0 0 0 0 0 0 0 0 0 0 0 0 0 0 0 0 0
0 0 0 0 0 0 0 0 0 0 0 0 0 0 0 0 0 0 0 0 0 0 0 0 0 0 0 0 0 0 0 0 0 0 0 0 0 0 0 0 0 0 0
0 0 0 0 0 0 0 0 0 0 0 0 0 0 0 0 0 0 0 0 0 0 0 0 0 0 0 0 0 0 0 0 0 0 0 0 0 0 0 0 0 0 0
0 0 0 0 0 0 0 0 0 0 0 0 0 0 0 0 0 0 0 0 0 0 0 0 0 0 0 0 0 0 0 0 0 0 0 0 0 0 0 0 0 0 0
0 0 0 0 0 0 0 0 0 0 0 0 0 0 0 0 0 0 0 0 0 0 0 0 0 0 0 0 0 0 0 0 0 0 0 0 0 0 0 0 0 0 0
0 0 0 0 0 0 0 0 0 0 0 0 0 0 0 0 0 0 0 0 0 0 0 0 0 0 0 0 0 0 0 0 -0 0 0 0 -0 0 0 0 0 0 0
0 0 0 0 0 0 0 0 0 0 0 0 0 0 0 0 0 0 0 0 0 0 0 0 0 0 0 0 0 0 0 0 0 -0 -0 -0 0 0 0 0 0 0 0
0 0 0 0 0 0 0 0 0 0 0 0 0 0 0 0 0 0 0 0 0 0 0 0 0 0 0 0 0 0 0 0 0 0 0 -0 0 0 0 0 0 0 0
0 0 0 0 0 0 0 0 0 0 0 0 0 0 0 0 0 0 0 0 0 0 0 0 0 0 0 0 0 0 0 0 0 0 0 -0 -0 0 0 0 0 0 0
0 0 0 0 0 0 0 0 0 0 0 0 0 0 0 0 0 0 0 0 0 0 0 0 0 0 0 0 0 0 0 0 0 0 0 0 0 -0 0 0 0 0 0
Wind_Speed_500mb
31 31 32 34 35 36 38 40 41 43 45 47 48 50 51 51 52 53 55 52 49 49 49 50 51 52 54 55 57 57 57 58 59 62 62 63 63 63 64 65 64 64 64
33 34 34 35 38 40 41 44 45 47 50 50 53 52 54 55 56 57 58 61 58 54 52 53 55 56 58 61 63 64 64 63 63 65 66 67 68 68 65 68 69 68 69
34 35 36 39 37 38 41 44 46 48 51 51 55 57 57 58 60 59 59 59 62 59 56 57 58 60 62 62 63 65 67 68 68 68 71 72 72 71 71 70 71 72 72
30 34 35 37 38 42 44 45 46 48 51 53 56 56 58 59 61 62 64 64 67 65 61 55 50 46 48 52 56 58 61 62 64 67 68 70 71 73 77 77 75 78 75
21 23 26 30 28 33 36 41 44 46 52 53 55 56 59 62 64 62 61 60 56 51 47 49 57 63 62 56 56 55 54 64 67 65 65 67 68 71 76 82 83 84 84
26 28 28 28 30 28 27 29 32 35 39 42 45 51 51 52 53 48 55 50 49 42 56 72 69 62 54 57 59 63 69 67 68 63 72 74 75 73 72 76 82 86 89
25 23 22 25 31 37 39 38 37 39 45 48 55 59 60 41 43 49 41 37 60 75 62 67 69 67 70 66 68 69 72 71 71 76 83 84 85 81 78 76 80 83 90
22 24 28 32 30 29 27 30 35 39 37 39 45 52 32 50 18 32 54 64 66 61 63 66 64 64 67 75 73 71 69 78 73 80 77 82 80 81 82 79 77 82 88
17 17 17 19 22 25 29 32 35 40 42 43 41 32 30 26 73 49 68 57 66 70 72 73 69 69 73 69 70 70 70 71 79 74 77 81 80 82 77 79 79 77 83
17 18 20 23 26 28 30 35 38 40 43 46 48 48 43 48 48 54 34 69 62 69 73 76 77 76 73 72 74 74 73 68 68 69 74 73 73 71 75 76 75 77 77
22 25 27 30 33 35 37 39 42 45 48 49 49 54 58 62 58 65 57 63 79 72 70 75 76 84 88 86 77 69 70 79 75 74 75 69 68 71 73 75 76 76 79
30 32 36 38 40 41 43 45 44 45 47 49 51 52 52 50 55 57 67 84 72 61 75 73 70 66 69 72 76 78 79 71 76 75 77 78 83 80 80 75 74 79 78
38 39 41 43 44 44 45 46 47 47 48 50 51 52 51 51 52 52 50 62 77 96 81 86 75 75 65 70 79 85 91 94 96 98 94 89 87 82 87 83 82 77 77
41 42 43 44 45 47 48 50 52 53 53 53 53 54 55 54 54 57 59 67 82 71 74 74 78 44 57 83 82 81 84 85 89 93 97 103 102 101 95 93 88 87 91
37 41 42 45 48 49 52 52 56 58 58 58 58 59 61 60 61 61 60 57 53 53 72 66 59 88 81 80 78 78 78 79 79 83 86 90 95 96 91 88 91 86 87
38 39 42 43 45 48 51 51 51 55 57 57 58 61 63 64 69 68 66 62 53 46 53 88 67 82 81 78 73 77 70 69 69 70 74 79 83 84 85 81 75 74 73
36 38 40 42 44 47 48 51 51 53 55 55 57 61 64 66 65 66 68 67 55 48 56 96 88 89 82 66 73 78 71 67 69 65 64 66 69 70 72 72 57 50 53
35 35 36 39 40 42 45 47 48 48 50 52 53 56 59 63 62 63 65 59 59 48 47 70 91 90 85 67 68 76 71 63 56 56 55 55 54 54 50 46 46 42 43
29 30 32 34 37 42 45 47 49 51 51 51 51 53 56 60 62 62 60 57 58 49 44 44 79 83 78 71 74 73 72 68 53 51 43 48 48 44 40 40 38 33 33
26 29 32 36 39 42 47 53 55 53 53 53 53 54 55 57 59 62 56 57 60 52 53 54 69 77 70 64 77 77 80 68 62 51 36 51 44 40 38 36 36 36 35
29 34 38 40 43 45 47 50 55 56 54 54 54 55 56 58 57 55 47 51 58 56 52 64 57 61 64 77 74 76 75 69 64 39 46 46 42 37 34 35 34 31 32
29 33 37 39 42 45 47 50 54 59 58 59 61 59 58 58 59 56 47 46 46 56 52 53 53 54 62 66 67 69 68 69 66 47 52 49 38 43 37 28 20 17 23
27 33 39 44 47 50 52 54 57 59 59 58 58 60 60 62 63 60 55 53 60 54 39 44 45 49 58 60 66 64 58 56 55 41 55 41 42 38 30 10 17 22 25
33 39 44 49 54 54 56 57 57 57 58 57 57 58 59 67 65 58 58 60 64 62 45 47 44 45 47 51 48 51 52 52 44 40 40 44 49 44 30 18 21 35 36
37 42 48 52 56 57 57 57 54 54 54 53 56 50 61 65 63 52 56 57 63 61 53 56 47 44 43 44 42 48 49 55 57 52 34 52 45 53 34 24 17 45 33
43 48 52 54 56 57 55 53 42 51 48 51 50 51 59 59 48 53 48 56 61 50 60 58 47 43 41 40 39 39 40 46 49 47 36 54 48 51 33 19 44 42 30
Wind_Direction_500mb
320 318 317 314 312 311 313 314 315 316 316 315 315 314 313 312 310 309 307 305 303 300 299 297 298 297 296 295 294 292 289 286 284 282 282 281 281 280 276 272 271 270 269
317 317 319 322 319 315 312 309 310 311 310 311 310 311 309 308 307 306 305 304 303 300 300 299 298 298 297 296 293 292 291 288 285 284 282 281 280 278 275 272 271 270 270
312 312 313 311 321 320 316 311 309 307 306 309 308 310 309 308 307 308 308 309 306 306 307 304 300 296 294 293 292 289 287 287 287 285 285 283 279 276 272 273 269 271 269
302 305 307 310 311 311 309 311 310 309 309 307 306 308 306 305 306 307 306 308 312 316 313 310 309 309 306 301 297 294 292 290 289 288 287 286 281 274 273 273 270 271 269
309 314 318 315 318 313 314 312 312 314 311 312 311 308 306 307 306 306 307 311 313 309 310 311 309 305 306 301 300 299 300 302 297 294 294 295 292 283 276 272 270 271 271
317 321 313 312 320 331 333 328 329 325 327 330 324 321 316 309 312 311 315 307 303 305 307 305 304 305 305 300 297 297 299 300 299 295 300 297 296 291 285 279 272 270 270
330 322 328 324 324 329 325 320 320 320 321 320 318 312 314 320 315 318 303 304 304 305 304 301 305 300 303 301 295 294 291 291 288 293 294 292 290 289 288 284 279 269 268
322 318 318 316 318 323 329 327 331 330 326 331 336 331 330 324 315 298 300 303 310 311 311 310 308 310 306 306 303 299 292 293 283 292 290 291 289 290 287 286 285 277 268
32 22 8 358 350 346 347 346 342 344 338 332 338 347 337 315 317 317 313 319 315 315 315 315 311 311 310 310 309 304 299 300 293 293 293 288 285 287 283 288 285 282 271
22 16 8 359 355 354 348 350 348 344 341 340 332 331 326 320 320 317 312 305 307 309 312 314 317 316 318 317 314 311 313 307 308 298 302 297 290 290 289 281 283 281 277
7 0 356 352 348 347 346 343 340 340 340 338 338 332 324 322 325 325 319 317 313 311 308 305 303 303 305 308 313 310 305 299 299 297 294 289 288 288 288 286 283 281 274
354 349 347 345 342 339 339 338 337 334 333 332 332 332 335 338 328 325 320 318 318 319 314 314 312 308 304 300 299 296 297 299 297 299 295 295 294 291 287 281 281 284 279
345 345 344 342 341 340 338 336 336 335 334 334 333 330 329 329 327 325 323 314 311 313 316 311 312 314 305 294 292 293 291 292 290 291 291 289 290 295 291 290 285 279 280
345 343 343 341 340 340 341 341 340 340 339 338 335 333 331 329 325 324 325 325 323 318 321 316 322 314 304 304 306 302 298 295 295 293 292 289 289 288 284 286 288 285 288
343 343 342 340 340 340 339 340 340 339 339 339 335 333 331 329 325 324 323 326 324 318 317 319 308 315 317 314 313 308 308 306 302 300 298 296 292 289 286 281 280 282 284
339 338 336 336 338 338 336 338 340 338 336 337 335 332 330 330 328 327 327 326 325 315 308 308 315 318 322 319 312 309 312 311 308 306 304 302 300 298 295 289 287 284 283
335 340 337 339 341 338 339 341 345 342 340 340 337 335 333 332 335 329 330 330 327 321 311 308 313 321 323 324 313 316 316 313 311 310 308 307 306 304 300 299 300 301 292
341 337 339 344 342 342 346 349 352 350 348 347 345 340 337 336 336 334 333 333 330 329 313 310 313 319 325 320 316 324 323 321 320 316 314 311 311 309 311 308 301 294 283
342 348 352 352 350 349 350 349 353 354 352 350 346 341 337 335 336 336 336 335 335 329 331 305 307 319 322 324 325 327 327 328 330 324 322 323 324 323 319 312 307 303 294
354 356 356 355 352 350 348 346 344 344 343 341 339 334 331 330 331 334 337 335 332 330 317 314 316 320 326 323 328 333 332 337 338 330 331 328 327 322 323 323 324 320 309
358 356 354 350 345 343 340 336 332 335 335 333 332 331 329 325 326 331 334 332 327 330 323 324 324 325 324 326 332 332 333 336 342 333 330 342 341 339 341 344 357 359 350
351 348 344 341 338 335 334 332 330 327 331 331 330 328 327 330 325 326 325 327 327 330 325 322 323 323 326 325 327 329 334 338 342 334 336 345 338 341 347 29 25 15 12
343 341 339 337 336 334 332 330 327 324 324 326 327 328 327 330 329 327 326 326 323 326 322 314 321 320 318 317 319 323 331 334 336 332 331 346 344 352 353 343 333 338 347
336 336 335 334 332 331 328 325 323 322 322 324 328 329 328 329 329 333 325 322 320 326 325 317 317 308 313 313 319 321 327 328 332 337 336 346 346 351 350 343 336 358 348
325 327 330 330 328 327 324 323 322 320 320 321 324 323 322 324 329 329 323 321 317 325 320 323 321 319 316 318 322 325 330 339 339 345 339 343 343 341 345 333 345 342 340
321 324 325 325 324 322 321 321 322 316 319 316 324 314 317 323 325 328 325 316 315 329 316 319 320 322 322 321 323 331 335 336 338 337 335 337 340 346 336 315 325 336 333
Wind_Speed_850mb
31 31 32 34 35 36 38 40 41 43 45 47 48 50 51 51 52 53 55 52 49 49 49 50 51 52 54 55 57 57 57 58 59 62 62 63 63 63 64 65 64 64 64
33 34 34 35 38 40 41 44 45 47 50 50 53 52 54 55 56 57 58 61 58 54 52 53 55 56 58 61 63 64 64 63 63 65 66 67 68 68 65 68 69 68 69
34 35 36 39 37 38 41 44 46 48 51 51 55 57 57 58 60 59 59 59 62 59 56 57 58 60 62 62 63 65 67 68 68 68 71 72 72 71 71 70 71 72 72
30 34 35 37 38 42 44 45 46 48 51 53 56 56 58 59 61 62 64 64 67 65 61 55 50 46 48 52 56 58 61 62 64 67 68 70 71 73 77 77 75 78 75
21 23 26 30 28 33 36 41 44 46 52 53 55 56 59 62 64 62 61 60 56 51 47 49 57 63 62 56 56 55 54 64 67 65 65 67 68 71 76 82 83 84 84
26 28 28 28 30 28 27 29 32 35 39 42 45 51 51 52 53 48 55 50 49 42 56 72 69 62 54 57 59 63 69 67 68 63 72 74 75 73 72 76 82 86 89
25 23 22 25 31 37 39 38 37 39 45 48 55 59 60 41 43 49 41 37 60 75 62 67 69 67 70 66 68 69 72 71 71 76 83 84 85 81 78 76 80 83 90
22 24 28 32 30 29 27 30 35 39 37 39 45 52 32 50 18 32 54 64 66 61 63 66 64 64 67 75 73 71 69 78 73 80 77 82 80 81 82 79 77 82 88
17 17 17 19 22 25 29 32 35 40 42 43 41 32 30 26 73 49 68 57 66 70 72 73 69 69 73 69 70 70 70 71 79 74 77 81 80 82 77 79 79 77 83
17 18 20 23 26 28 30 35 38 40 43 46 48 48 43 48 48 54 34 69 62 69 73 76 77 76 73 72 74 74 73 68 68 69 74 73 73 71 75 76 75 77 77
22 25 27 30 33 35 37 39 42 45 48 49 49 54 58 62 58 65 57 63 79 72 70 75 76 84 88 86 77 69 70 79 75 74 75 69 68 71 73 75 76 76 79
30 32 36 38 40 41 43 45 44 45 47 49 51 52 52 50 55 57 67 84 72 61 75 73 70 66 69 72 76 78 79 71 76 75 77 78 83 80 80 75 74 79 78
38 39 41 43 44 44 45 46 47 47 48 50 51 52 51 51 52 52 50 62 77 96 81 86 75 75 65 70 79 85 91 94 96 98 94 89 87 82 87 83 82 77 77
41 42 43 44 45 47 48 50 52 53 53 53 53 54 55 54 54 57 59 67 82 71 74 74 78 44 57 83 82 81 84 85 89 93 97 103 102 101 95 93 88 87 91
37 41 42 45 48 49 52 52 56 58 58 58 58 59 61 60 61 61 60 57 53 53 72 66 59 88 81 80 78 78 78 79 79 83 86 90 95 96 91 88 91 86 87
38 39 42 43 45 48 51 51 51 55 57 57 58 61 63 64 69 68 66 62 53 46 53 88 67 82 81 78 73 77 70 69 69 70 74 79 83 84 85 81 75 74 73
36 38 40 42 44 47 48 51 51 53 55 55 57 61 64 66 65 66 68 67 55 48 56 96 88 89 82 66 73 78 71 67 69 65 64 66 69 70 72 72 57 50 53
35 35 36 39 40 42 45 47 48 48 50 52 53 56 59 63 62 63 65 59 59 48 47 70 91 90 85 67 68 76 71 63 56 56 55 55 54 54 50 46 46 42 43
29 30 32 34 37 42 45 47 49 51 51 51 51 53 56 60 62 62 60 57 58 49 44 44 79 83 78 71 74 73 72 68 53 51 43 48 48 44 40 40 38 33 33
26 29 32 36 39 42 47 53 55 53 53 53 53 54 55 57 59 62 56 57 60 52 53 54 69 77 70 64 77 77 80 68 62 51 36 51 44 40 38 36 36 36 35
29 34 38 40 43 45 47 50 55 56 54 54 54 55 56 58 57 55 47 51 58 56 52 64 57 61 64 77 74 76 75 69 64 39 46 46 42 37 34 35 34 31 32
29 33 37 39 42 45 47 50 54 59 58 59 61 59 58 58 59 56 47 46 46 56 52 53 53 54 62 66 67 69 68 69 66 47 52 49 38 43 37 28 20 17 23
27 33 39 44 47 50 52 54 57 59 59 58 58 60 60 62 63 60 55 53 60 54 39 44 45 49 58 60 66 64 58 56 55 41 55 41 42 38 30 10 17 22 25
33 39 44 49 54 54 56 57 57 57 58 57 57 58 59 67 65 58 58 60 64 62 45 47 44 45 47 51 48 51 52 52 44 40 40 44 49 44 30 18 21 35 36
37 42 48 52 56 57 57 57 54 54 54 53 56 50 61 65 63 52 56 57 63 61 53 56 47 44 43 44 42 48 49 55 57 52 34 52 45 53 34 24 17 45 33
43 48 52 54 56 57 55 53 42 51 48 51 50 51 59 59 48 53 48 56 61 50 60 58 47 43 41 40 39 39 40 46 49 47 36 54 48 51 33 19 44 42 30
Wind_Direction_850mb
320 318 317 314 312 311 313 314 315 316 316 315 315 314 313 312 310 309 307 305 303 300 299 297 298 297 296 295 294 292 289 286 284 282 282 281 281 280 276 272 271 270 269
317 317 319 322 319 315 312 309 310 311 310 311 310 311 309 308 307 306 305 304 303 300 300 299 298 298 297 296 293 292 291 288 285 284 282 281 280 278 275 272 271 270 270
312 312 313 311 321 320 316 311 309 307 306 309 308 310 309 308 307 308 308 309 306 306 307 304 300 296 294 293 292 289 287 287 287 285 285 283 279 276 272 273 269 271 269
302 305 307 310 311 311 309 311 310 309 309 307 306 308 306 305 306 307 306 308 312 316 313 310 309 309 306 301 297 294 292 290 289 288 287 286 281 274 273 273 270 271 269
309 314 318 315 318 313 314 312 312 314 311 312 311 308 306 307 306 306 307 311 313 309 310 311 309 305 306 301 300 299 300 302 297 294 294 295 292 283 276 272 270 271 271
317 321 313 312 320 331 333 328 329 325 327 330 324 321 316 309 312 311 315 307 303 305 307 305 304 305 305 300 297 297 299 300 299 295 300 297 296 291 285 279 272 270 270
330 322 328 324 324 329 325 320 320 320 321 320 318 312 314 320 315 318 303 304 304 305 304 301 305 300 303 301 295 294 291 291 288 293 294 292 290 289 288 284 279 269 268
322 318 318 316 318 323 329 327 331 330 326 331 336 331 330 324 315 298 300 303 310 311 311 310 308 310 306 306 303 299 292 293 283 292 290 291 289 290 287 286 285 277 268
32 22 8 358 350 346 347 346 342 344 338 332 338 347 337 315 317 317 313 319 315 315 315 315 311 311 310 310 309 304 299 300 293 293 293 288 285 287 283 288 285 282 271
22 16 8 359 355 354 348 350 348 344 341 340 332 331 326 320 320 317 312 305 307 309 312 314 317 316 318 317 314 311 313 307 308 298 302 297 290 290 289 281 283 281 277
7 0 356 352 348 347 346 343 340 340 340 338 338 332 324 322 325 325 319 317 313 311 308 305 303 303 305 308 313 310 305 299 299 297 294 289 288 288 288 286 283 281 274
354 349 347 345 342 339 339 338 337 334 333 332 332 332 335 338 328 325 320 318 318 319 314 314 312 308 304 300 299 296 297 299 297 299 295 295 294 291 287 281 281 284 279
345 345 344 342 341 340 338 336 336 335 334 334 333 330 329 329 327 325 323 314 311 313 316 311 312 314 305 294 292 293 291 292 290 291 291 289 290 295 291 290 285 279 280
345 343 343 341 340 340 341 341 340 340 339 338 335 333 331 329 325 324 325 325 323 318 321 316 322 314 304 304 306 302 298 295 295 293 292 289 289 288 284 286 288 285 288
343 343 342 340 340 340 339 340 340 339 339 339 335 333 331 329 325 324 323 326 324 318 317 319 308 315 317 314 313 308 308 306 302 300 298 296 292 289 286 281 280 282 284
339 338 336 336 338 338 336 338 340 338 336 337 335 332 330 330 328 327 327 326 325 315 308 308 315 318 322 319 312 309 312 311 308 306 304 302 300 298 295 289 287 284 283
335 340 337 339 341 338 339 341 345 342 340 340 337 335 333 332 335 329 330 330 327 321 311 308 313 321 323 324 313 316 316 313 311 310 308 307 306 304 300 299 300 301 292
341 337 339 344 342 342 346 349 352 350 348 347 345 340 337 336 336 334 333 333 330 329 313 310 313 319 325 320 316 324 323 321 320 316 314 311 311 309 311 308 301 294 283
342 348 352 352 350 349 350 349 353 354 352 350 346 341 337 335 336 336 336 335 335 329 331 305 307 319 322 324 325 327 327 328 330 324 322 323 324 323 319 312 307 303 294
354 356 356 355 352 350 348 346 344 344 343 341 339 334 331 330 331 334 337 335 332 330 317 314 316 320 326 323 328 333 332 337 338 330 331 328 327 322 323 323 324 320 309
358 356 354 350 345 343 340 336 332 335 335 333 332 331 329 325 326 331 334 332 327 330 323 324 324 325 324 326 332 332 333 336 342 333 330 342 341 339 341 344 357 359 350
351 348 344 341 338 335 334 332 330 327 331 331 330 328 327 330 325 326 325 327 327 330 325 322 323 323 326 325 327 329 334 338 342 334 336 345 338 341 347 29 25 15 12
343 341 339 337 336 334 332 330 327 324 324 326 327 328 327 330 329 327 326 326 323 326 322 314 321 320 318 317 319 323 331 334 336 332 331 346 344 352 353 343 333 338 347
336 336 335 334 332 331 328 325 323 322 322 324 328 329 328 329 329 333 325 322 320 326 325 317 317 308 313 313 319 321 327 328 332 337 336 346 346 351 350 343 336 358 348
325 327 330 330 328 327 324 323 322 320 320 321 324 323 322 324 329 329 323 321 317 325 320 323 321 319 316 318 322 325 330 339 339 345 339 343 343 341 345 333 345 342 340
321 324 325 325 324 322 321 321 322 316 319 316 324 314 317 323 325 328 325 316 315 329 316 319 320 322 322 321 323 331 335 336 338 337 335 337 340 346 336 315 325 336 333